{"data":{"norad_id":66094,"epoch":"2026-05-25T03:41:35.651904Z","epoch_age_seconds":65192,"freshness":"FRESH","line1":"1 66094U 25236J   26145.15388486  .00035000  00000+0  11868-2 0  9997","line2":"2 66094  53.1600 108.5604 0001609  94.2276 265.8909 15.30240806 34658","mean_motion":15.30240806,"eccentricity":0.0001609,"inclination_deg":53.16,"raan_deg":108.5604,"arg_perigee_deg":94.2276,"mean_anomaly_deg":265.8909,"bstar":0.0011868,"rev_number":3465,"period_min":94.102836256479,"perigee_km":473.99054802172,"apogee_km":476.19591751063,"semimajor_km":6853.2302327662,"source":"CELESTRAK","updated_at":"2026-05-25T13:38:21.028441Z"}}